DW8248 Weather Reports


Display with metric or nautical units.
time (UTC)temp
F
wind
direction
speed
MPH
gust
MPH
rain 1hr
in
rain 24hr
in
rain mn
in
humidity
%
barometer
mb
20260831025946 82 73 1.0 2.0 0.00 0.14 0.14 82 1016.9
20260831023748 82 57 0.0 0.0 0.00 0.14 0.14 82 1016.7
20260831022808 82 71 0.0 0.0 0.00 0.14 0.14 82 1016.8
20260831021826 82 76 0.0 0.0 0.00 0.14 0.14 82 1016.7
20260831020800 82 67 1.0 3.0 0.00 0.14 0.14 82 1016.7
20260831015725 82 69 1.0 4.0 0.00 0.14 0.14 81 1016.9
20260831014712 82 75 2.0 5.0 0.00 0.14 0.14 81 1016.8
20260831013636 82 63 2.0 7.0 0.00 0.14 0.14 81 1016.8
20260831012650 82 71 2.0 7.0 0.00 0.14 0.14 80 1016.9
20260831011618 82 21 2.0 7.0 0.00 0.14 0.14 81 1016.9
20260831010638 82 40 2.0 7.0 0.00 0.14 0.14 81 1017.0
20260831005640 82 61 2.0 5.0 0.00 0.14 0.14 81 1016.9
20260831003511 82 49 2.0 6.0 0.00 0.14 0.14 82 1016.8
20260831002520 82 48 2.0 6.0 0.00 0.14 0.14 82 1016.7
20260831001504 82 40 2.0 4.0 0.00 0.14 0.14 81 1016.6
20260831000442 82 24 2.0 4.0 0.00 0.14 0.14 80 1016.6
20260830235443 82 35 1.0 4.0 0.00 0.14 0.14 80 1016.6
20260830234440 83 16 1.0 4.0 0.00 0.14 0.14 79 1016.5
20260830233429 83 35 2.0 4.0 0.00 0.14 0.14 78 1016.5
20260830232411 83 56 2.0 4.0 0.00 0.14 0.14 77 1016.3
20260830225132 84 54 1.0 3.0 0.00 0.14 0.14 77 1015.9
20260830224134 83 115 2.0 6.0 0.00 0.16 0.14 77 1015.9
20260830223101 83 81 2.0 6.0 0.00 0.16 0.14 77 1015.9
20260830222054 83 104 2.0 6.0 0.00 0.16 0.14 77 1015.9
20260830215907 84 98 0.0 3.0 0.00 0.16 0.14 74 1015.7
20260830213740 84 78 1.0 3.0 0.00 0.16 0.14 76 1015.7
20260830210444 83 36 2.0 6.0 0.00 0.16 0.14 77 1015.7
20260830205454 83 65 3.0 6.0 0.00 0.16 0.14 77 1015.8
20260830204434 83 34 2.0 5.0 0.00 0.16 0.14 76 1015.8
20260830201147 83 58 1.0 5.0 0.00 0.35 0.14 78 1016.3
20260830200110 83 49 1.0 5.0 0.00 0.35 0.14 79 1016.4
20260830195128 82 246 0.0 2.0 0.00 0.35 0.14 79 1016.4
20260830194057 82 192 0.0 0.0 0.00 0.35 0.14 80 1016.5
20260830193109 81 260 0.0 1.0 0.00 0.35 0.14 80 1016.5
20260830192131 81 260 1.0 2.0 0.00 0.35 0.14 80 1016.6
20260830191120 80 265 0.0 1.0 0.00 0.35 0.14 82 1016.3
20260830190134 80 329 0.0 0.0 0.00 0.35 0.14 84 1016.4
20260830184004 78 152 0.0 1.0 0.00 0.35 0.14 86 1016.6
20260830183005 78 49 1.0 5.0 0.06 0.35 0.14 87 1016.8
20260830180850 78 103 2.0 7.0 0.10 0.33 0.13 87 1017.4
20260830175851 77 102 3.0 10.0 0.09 0.32 0.11 87 1017.7
20260830174835 78 137 4.0 12.0 0.13 0.31 0.10 88 1017.9
20260830173840 78 128 6.0 12.0 0.16 0.29 0.08 87 1018.0
20260830172857 78 127 7.0 12.0 0.06 0.27 0.06 88 1018.2
20260830171904 78 144 4.0 8.0 0.12 0.26 0.05 88 1018.2
20260830170836 78 164 5.0 9.0 0.04 0.24 0.03 87 1018.4
20260830165840 78 142 6.0 11.0 0.07 0.23 0.02 87 1018.6
20260830164815 78 152 9.0 15.0 0.00 0.22 0.01 86 1018.5
20260830163800 78 152 9.0 15.0 0.00 0.21 0.00 85 1018.8
20260830162820 78 113 9.0 19.0 0.00 0.21 0.00 84 1019.1
20260830161840 80 165 11.0 23.0 0.00 0.21 0.00 83 1019.1
20260830155643 85 155 5.0 12.0 0.00 0.21 0.00 77 1018.2
20260830154644 85 82 4.0 10.0 0.00 0.21 0.00 77 1018.0
20260830153646 85 92 5.0 11.0 0.00 0.21 0.00 77 1018.0
20260830152616 87 94 5.0 11.0 0.00 0.21 0.00 78 1017.9
20260830151635 88 80 4.0 10.0 0.00 0.21 0.00 77 1017.9
20260830150624 88 57 4.0 9.0 0.00 0.21 0.00 74 1017.9
20260830145603 88 110 2.0 6.0 0.00 0.21 0.00 74 1017.9
20260830144603 87 49 1.0 4.0 0.00 0.21 0.00 74 1017.8
20260830143613 87 136 2.0 6.0 0.00 0.21 0.00 73 1017.9
20260830142609 88 106 2.0 6.0 0.00 0.21 0.00 73 1018.0
20260830141541 87 77 1.0 5.0 0.00 0.21 0.00 75 1018.0
20260830140552 86 213 0.0 2.0 0.00 0.21 0.00 76 1018.2
20260830135519 86 212 0.0 1.0 0.00 0.21 0.00 77 1018.1
20260830134505 85 191 2.0 4.0 0.00 0.21 0.00 77 1018.0
20260830133519 86 196 1.0 4.0 0.00 0.21 0.00 77 1018.0
20260830132541 86 104 1.0 3.0 0.00 0.21 0.00 77 1017.9
20260830131532 85 78 1.0 3.0 0.00 0.21 0.00 78 1017.8
20260830130516 85 134 0.0 2.0 0.00 0.21 0.00 79 1017.7
20260830125518 84 114 1.0 3.0 0.00 0.21 0.00 82 1017.6
20260830124511 84 92 1.0 3.0 0.00 0.21 0.00 82 1017.5
20260830123527 83 110 0.0 3.0 0.00 0.21 0.00 83 1017.4
20260830121353 83 88 1.0 3.0 0.00 0.21 0.00 83 1017.1
20260830120331 83 109 1.0 3.0 0.00 0.21 0.00 84 1017.1
20260830114120 83 114 0.0 2.0 0.00 0.21 0.00 84 1016.8
20260830113130 83 115 0.0 0.0 0.00 0.21 0.00 84 1016.6
20260830110929 83 110 1.0 3.0 0.00 0.21 0.00 83 1016.3
20260830105941 83 113 1.0 3.0 0.00 0.23 0.00 83 1016.3
20260830104911 83 113 1.0 5.0 0.00 0.25 0.00 83 1016.1
20260830103843 83 91 2.0 9.0 0.00 0.25 0.00 82 1016.0
20260830102851 83 98 4.0 9.0 0.00 0.25 0.00 82 1015.8
20260830101831 83 107 2.0 7.0 0.00 0.25 0.00 83 1015.6
20260830100754 83 84 1.0 7.0 0.00 0.25 0.00 84 1015.5
20260830095735 83 71 0.0 5.0 0.00 0.25 0.00 84 1015.6
20260830094724 83 102 2.0 5.0 0.00 0.25 0.00 84 1015.6
20260830093733 83 98 1.0 3.0 0.00 0.25 0.00 84 1015.5
20260830092656 83 109 2.0 7.0 0.00 0.25 0.00 84 1015.4
20260830091635 83 113 3.0 7.0 0.00 0.25 0.00 84 1015.5
20260830090631 83 117 2.0 6.0 0.00 0.25 0.00 84 1015.6
20260830085617 83 128 2.0 5.0 0.00 0.25 0.00 84 1015.6
20260830084607 83 109 2.0 6.0 0.00 0.25 0.00 84 1015.6
20260830083613 83 103 2.0 7.0 0.00 0.25 0.00 83 1015.6
20260830082556 83 92 3.0 9.0 0.00 0.25 0.00 83 1015.8
20260830081519 83 113 4.0 9.0 0.00 0.25 0.00 83 1015.8
20260830080519 83 78 3.0 8.0 0.00 0.25 0.00 83 1016.0
20260830075458 83 134 3.0 9.0 0.00 0.25 0.00 83 1016.1
20260830074513 83 113 3.0 9.0 0.00 0.25 0.00 83 1016.1
20260830073502 83 110 4.0 9.0 0.00 0.25 0.00 83 1016.2
20260830071351 83 136 3.0 8.0 0.00 0.25 0.00 83 1016.4
20260830070348 83 94 3.0 8.0 0.00 0.25 0.00 83 1016.5
20260830065336 83 98 4.0 8.0 0.00 0.25 0.00 83 1016.5
20260830064350 82 127 4.0 9.0 0.00 0.25 0.00 82 1016.6
20260830063327 82 129 3.0 9.0 0.00 0.25 0.00 82 1016.7
20260830062255 83 150 4.0 8.0 0.00 0.25 0.00 82 1016.8
20260830061255 83 118 3.0 7.0 0.00 0.25 0.00 82 1016.9
20260830060222 83 136 3.0 7.0 0.00 0.25 0.00 82 1017.1
20260830055149 83 137 4.0 9.0 0.00 0.25 0.00 81 1017.1
20260830054203 83 127 3.0 9.0 0.00 0.25 0.00 81 1017.1
20260830053137 82 138 3.0 8.0 0.00 0.25 0.00 81 1017.1
20260830052108 82 137 4.0 8.0 0.00 0.25 0.00 83 1017.2
20260830051105 81 167 1.0 7.0 0.00 0.25 0.00 86 1017.4
20260830045124 81 163 1.0 7.0 0.00 0.25 0.00 87 1017.7
20260830044055 81 144 3.0 7.0 0.00 0.25 0.00 87 1017.7
20260830043037 81 188 3.0 5.0 0.00 0.25 0.00 87 1017.7
20260830040916 81 241 3.0 6.0 0.00 0.25 0.00 86 1017.6
20260830035924 81 246 3.0 6.0 0.00 0.25 0.25 85 1017.6
20260830033752 82 258 2.0 5.0 0.00 0.25 0.25 84 1017.5
20260830032737 82 255 2.0 5.0 0.00 0.25 0.25 84 1017.5
20260830031738 82 203 2.0 6.0 0.00 0.25 0.25 83 1017.5